Regional Weather Roundup
Issued by NWS

Home | Current Version | Previous Version | Text Only | Print | Product List | Glossary Off
Versions: 1 2 3 4 5 6 7 8 9 10 11 12 13 14 15 16 17 18 19 20 21 22 23 24 25 26 27 28 29 30 31 32 33 34 35 36 37 38 39 40 41 42 43 44 45 46 47 48 49 50

000
ASUS45 KABQ 251610
RWRNM
NEW MEXICO REGIONAL WEATHER ROUNDUP
NATIONAL WEATHER SERVICE ALBUQUERQUE NM
1000 AM MDT WED APR 25 2018

NOTE: "FAIR" MEANS FEW OR NO CLOUDS BELOW 12,000 FEET AGL WITH NO
       SIGNIFICANT WEATHER OR OBSTRUCTIONS TO VISION.

      THIS PRODUCT IS RELEASED AS TWO VERSIONS.  ONE VERSION NEAR
      THE TOP OF THE HOUR CONTAINING PRELIMINARY DATA FROM ALBUQUERQUE
      AND OTHER STATIONS.  A FINAL VERSION WITH ADDITIONAL DATA IS
      ISSUED ABOUT 10 MINUTES AFTER THE HOUR.

NMZ501-503-504-510>518-251700-
NORTHWEST PLATEAU/NORTHCENTRAL MOUNTAINS

CITY           SKY/WX    TMP DP  RH WIND       PRES   REMARKS
FARMINGTON     FAIR      53  14  21 CALM      30.23S
LOS ALAMOS     PTSUNNY   48  33  57 S5        30.35S
SANTA FE       FAIR      48  31  51 S14       30.33S
TAOS           FAIR      52  19  27 N8        30.35F
ANGEL FIRE     FAIR      44  21  39 CALM      30.35S

$$
NMZ402-403-502-505>509-251700-
WESTCENTRAL MOUNTAINS/SOUTHWEST MOUNTAINS

CITY           SKY/WX    TMP DP  RH WIND       PRES   REMARKS
GALLUP         FAIR      62   9  12 NE7       30.27F
GRANTS         FAIR      54  32  43 SE7       30.31F
SILVER CITY    FAIR      69  18  14 S6        30.21S

$$
NMZ407-409-411-412-251700-
SOUTHERN DESERTS

CITY           SKY/WX    TMP DP  RH WIND       PRES   REMARKS
DEMING         FAIR      64  35  34 NE21      30.23R
LAS CRUCES     FAIR      61  34  37 W6        30.26R
HOLLOMAN AFB   FAIR      61  37  40 S9        30.26R
ALAMOGORDO     FAIR      59  37  44 S16       30.25S
T OR C         FAIR      59  35  40 N22G29    30.25S

$$
NMZ519>523-251700-
CENTRAL VALLEYS/CENTRAL HIGHLANDS

CITY           SKY/WX    TMP DP  RH WIND       PRES   REMARKS
ALBUQUERQUE    FAIR      55  34  45 E18       30.30S
DOUBLE EAGLE   MOSUNNY   52  34  50 S6        30.32R
MORIARTY ARPT  CLOUDY    48  32  53 SE9       30.37S
CLINES CORNERS CLOUDY    40  27  59 SE10      30.37S WCI  33
BELEN          FAIR      53  33  46 W6        30.30F
SOCORRO        FAIR      53  33  46 CALM      30.31F

$$
NMZ524>526-539-540-251700-
SOUTHCENTRAL MOUNTAINS

CITY           SKY/WX    TMP DP  RH WIND       PRES   REMARKS
RUIDOSO        CLOUDY    36  36 100 SE13      30.39  WCI  27

$$
NMZ527>531-251700-
NORTHEAST HIGHLANDS/NORTHEAST PLAINS

CITY           SKY/WX    TMP DP  RH WIND       PRES   REMARKS
LAS VEGAS      FAIR      43  28  55 CALM      30.34F
RATON          FAIR      46  24  42 VRB6      30.32F
CLAYTON        FAIR      46  28  49 N17G24    30.33S

$$
NMZ532>537-251700-
EASTCENTRAL PLAINS

CITY           SKY/WX    TMP DP  RH WIND       PRES   REMARKS
SANTA ROSA     FAIR      47  30  50 N5        30.36F
TUCUMCARI      PTSUNNY   50  30  46 NE16      30.34F
CANNON AFB     CLOUDY    46  33  61 NE18      30.36F
CLOVIS AIRPORT CLOUDY    46  30  53 NE21      30.36S

$$
NMZ028-029-538-251700-
SOUTHEAST PLAINS

CITY           SKY/WX    TMP DP  RH WIND       PRES   REMARKS
ROSWELL        CLOUDY    47  37  68 N13       30.38F
ARTESIA        CLOUDY    43  43 100 N15       30.40S
CARLSBAD       LGT RAIN  46  43  89 N15       30.37S
HOBBS          CLOUDY    41  39  93 N18G24    30.34S


$$




USA.gov is the U.S. government's official web portal to all federal, state and local government web resources and services.